Location: Kitchener-Waterloo
(43.4500°N, 80.5000°W)
Time: 06:37:31
(UTC-04:00)

Amateur Radio Satellites - All Passes

Search period start: 26 July 2017 06:07
Search period end: 27 July 2017 06:07
Location: Kitchener-Waterloo, 43.4500°N, 80.5000°W

Satellite Date Start Highest point End Downlink Frequencies (MHz)
Time Altitude Azimuth
KKS-1 26 Jul 06:08:33 06:12:32 32° 263° (W) 06:16:34 437.445
YUBILEINY 26 Jul 06:09:13 06:17:51 56° 76° (ENE) 06:26:21 435.215
CUBESAT XI-V 26 Jul 06:13:59 06:17:06 18° 269° (W) 06:20:14 437.345
DOVE 4 26 Jul 06:14:43 06:19:27 33° 94° (E) 06:24:00 437.250
STRAND 1 26 Jul 06:15:09 06:16:48 11° 56° (ENE) 06:18:27 437.568
AO-7 26 Jul 06:19:39 06:27:29 46° 299° (WNW) 06:35:16 .
CUTE-I 26 Jul 06:22:32 06:24:54 13° 88° (E) 06:27:15 437.470
STARS 26 Jul 06:35:00 06:39:08 38° 262° (W) 06:43:18 437.465
XW-2C 26 Jul 06:37:19 06:39:45 16° 92° (E) 06:42:11 145.795 - 145.815
NUDT-PHONESAT 26 Jul 06:41:12 06:42:57 13° 91° (E) 06:44:42 437.300
KAITUO 1B 26 Jul 06:56:20 06:59:11 20° 94° (E) 07:02:01 145.475/437.950
LilacSat-2 26 Jul 07:01:12 07:04:39 33° 97° (E) 07:08:06 437.200
SO-50 26 Jul 07:02:07 07:06:39 79° 123° (ESE) 07:11:11 436.795
XW-2F 26 Jul 07:13:23 07:16:56 41° 98° (E) 07:20:30 145.980 - 146.000
PCSat 26 Jul 07:31:48 07:35:47 20° 319° (NW) 07:39:46 145.827
XW-2D 26 Jul 07:42:51 07:46:37 76° 284° (WNW) 07:50:22 145.860 - 145.880
STRAND 1 26 Jul 07:49:58 07:55:07 79° 74° (ENE) 08:00:17 437.568
DOVE 4 26 Jul 07:52:22 07:57:03 33° 293° (WNW) 08:01:36 437.250
XW-2B 26 Jul 07:53:00 07:56:42 59° 285° (WNW) 08:00:25 145.730 - 145.750
CUTE-I 26 Jul 08:00:13 08:05:36 83° 286° (WNW) 08:10:56 437.470
YUBILEINY 26 Jul 08:06:41 08:14:11 33° 277° (W) 08:21:37 435.215
HO-68 26 Jul 08:10:23 08:17:03 40° 98° (E) 08:23:41 435.675
XW-2C 26 Jul 08:10:37 08:14:04 35° 289° (WNW) 08:17:32 145.795 - 145.815
NUDT-PHONESAT 26 Jul 08:13:34 08:17:04 43° 287° (WNW) 08:20:34 437.300
AAUSAT CUBESAT 2 26 Jul 08:14:07 08:14:34 10° 88° (E) 08:15:01 437.432
FO-29 26 Jul 08:14:29 08:19:38 20° 54° (NE) 08:24:48 435.910
AO-7 26 Jul 08:15:33 08:18:08 12° 322° (NW) 08:20:43 .
KAITUO 1B 26 Jul 08:29:59 08:33:10 27° 290° (WNW) 08:36:22 145.475/437.950
LilacSat-2 26 Jul 08:36:02 08:38:42 19° 293° (WNW) 08:41:22 437.200
SO-50 26 Jul 08:44:36 08:47:39 18° 322° (NW) 08:50:43 436.795
XW-2F 26 Jul 08:48:32 08:50:44 15° 295° (WNW) 08:52:56 145.980 - 146.000
CUBEBUG 2 26 Jul 08:48:48 08:52:53 44° 98° (E) 08:56:52 437.445
CUTE 1.7 + AOD 2 26 Jul 08:56:35 09:00:50 75° 285° (WNW) 09:05:05 437.475
AO-73 26 Jul 08:59:28 09:02:08 16° 92° (E) 09:04:47 145.935
SEEDS 26 Jul 09:06:26 09:10:41 89° 104° (ESE) 09:14:55 437.485
XW-2A 26 Jul 09:12:23 09:15:43 68° 284° (WNW) 09:19:01 145.665 - 145.685
TIGRISAT 26 Jul 09:20:18 09:23:19 17° 63° (ENE) 09:26:18 435.000
STRAND 1 26 Jul 09:32:31 09:34:53 13° 271° (W) 09:37:15 437.568
CUTE-I 26 Jul 09:42:29 09:44:48 13° 304° (NW) 09:47:07 437.470
UWE-3 26 Jul 09:44:10 09:48:23 76° 283° (WNW) 09:52:29 435.000/436.395/437.385
PRISM 26 Jul 09:46:06 09:49:29 25° 67° (ENE) 09:52:54 437.425
AAUSAT CUBESAT 2 26 Jul 09:46:19 09:50:29 71° 285° (WNW) 09:54:39 437.432
ZACube-1 26 Jul 09:55:01 09:59:11 78° 101° (ESE) 10:03:19 437.345
FO-29 26 Jul 09:55:46 10:03:27 79° 73° (ENE) 10:11:21 435.910
HO-68 26 Jul 09:58:09 10:04:46 42° 296° (WNW) 10:11:22 435.675
UNISAT 6 26 Jul 10:11:08 10:15:41 58° 73° (ENE) 10:20:10 437.425
Oscar 11 26 Jul 10:18:47 10:23:07 85° 286° (WNW) 10:27:26 .
CUBEBUG 2 26 Jul 10:26:21 10:29:09 17° 296° (WNW) 10:31:55 437.445
M-CUBED/EXP-1 PRIME 26 Jul 10:34:26 10:38:03 56° 67° (ENE) 10:42:00 437.505
AO-73 26 Jul 10:34:40 10:38:35 42° 288° (WNW) 10:42:28 145.935
DELFI C3 26 Jul 10:37:10 10:40:56 37° 98° (E) 10:44:40 145.870
NO-84 26 Jul 10:45:21 10:47:33 19° 128° (SE) 10:49:51 435.350 FM
EO-88 26 Jul 10:45:21 10:48:31 27° 96° (E) 10:51:40 145.990 - 145.960
TIGRISAT 26 Jul 10:55:03 10:59:35 54° 260° (W) 11:04:05 435.000
PRISM 26 Jul 11:21:08 11:24:40 28° 264° (W) 11:28:15 437.425
ZACube-1 26 Jul 11:34:07 11:34:50 10° 300° (WNW) 11:35:31 437.345
ESTCUBE 1 26 Jul 11:38:55 11:40:40 12° 89° (E) 11:42:26 437.505/2401.250
FO-29 26 Jul 11:43:20 11:49:09 23° 272° (W) 11:55:08 435.910
UNISAT 6 26 Jul 11:50:03 11:52:43 15° 269° (W) 11:55:22 437.425
DUCHIFAT 1 26 Jul 11:50:32 11:54:16 31° 69° (ENE) 11:58:01 145.980
POLYITAN 1 26 Jul 11:54:47 11:58:50 42° 71° (ENE) 12:02:52 437.675
AIST 2D 26 Jul 11:59:39 12:03:06 70° 258° (WSW) 12:06:35 435.315
QB50P2 26 Jul 12:07:42 12:11:56 65° 73° (ENE) 12:16:10 145.880/145.840
M-CUBED/EXP-1 PRIME 26 Jul 12:11:42 12:12:57 11° 267° (W) 12:14:13 437.505
DELFI C3 26 Jul 12:12:38 12:15:25 18° 294° (WNW) 12:18:13 145.870
BUGSAT 1 26 Jul 12:14:46 12:17:37 18° 64° (ENE) 12:20:28 437.445
Oscar 19 26 Jul 12:15:44 12:16:32 10° 55° (NE) 12:17:20 437.125/150
LO-87 26 Jul 12:18:18 12:21:49 49° 99° (E) 12:25:17 145.935 - 145.965
NANOSAT C BR1 26 Jul 12:18:20 12:22:33 70° 75° (ENE) 12:26:48 145.865
EO-79 26 Jul 12:19:12 12:23:28 80° 74° (ENE) 12:27:44 145.935-145.965
EO-88 26 Jul 12:19:19 12:22:02 20° 292° (WNW) 12:24:44 145.990 - 145.960
NO-84 26 Jul 12:21:46 12:24:43 41° 328° (NNW) 12:27:54 435.350 FM
BEESAT 3 26 Jul 12:32:49 12:36:14 28° 115° (ESE) 12:39:44 437.485
AO-85 26 Jul 12:35:24 12:38:54 29° 116° (ESE) 12:42:19 145.980
Gurwin Techsat 1B 26 Jul 12:50:35 12:53:34 15° 58° (ENE) 12:56:31 435.225
PCSat 26 Jul 12:50:47 12:54:15 17° 38° (NE) 12:57:43 145.827
SPROUT 26 Jul 12:57:29 13:00:42 20° 93° (E) 13:03:53 437.525
ESTCUBE 1 26 Jul 13:13:25 13:17:57 70° 286° (WNW) 13:22:27 437.505/2401.250
BEESAT 2 26 Jul 13:15:56 13:19:19 27° 115° (ESE) 13:22:46 435.950
DUCHIFAT 1 26 Jul 13:26:29 13:29:56 24° 265° (W) 13:33:24 145.980
POLYITAN 1 26 Jul 13:31:54 13:34:48 18° 268° (W) 13:37:42 437.675
AO-7 26 Jul 13:38:43 13:43:39 17° 45° (NE) 13:48:34 .
QB50P2 26 Jul 13:46:37 13:48:08 12° 271° (W) 13:49:39 145.880/145.840
BUGSAT 1 26 Jul 13:48:34 13:52:38 45° 261° (W) 13:56:42 437.445
Oscar 19 26 Jul 13:49:50 13:54:55 72° 74° (ENE) 14:00:03 437.125/150
VELOX 1 26 Jul 13:52:42 13:57:11 68° 102° (ESE) 14:01:36 145.980
SO-50 26 Jul 13:52:48 13:55:44 17° 37° (NE) 13:58:41 436.795
LO-87 26 Jul 13:53:25 13:54:48 12° 296° (WNW) 13:56:11 145.935 - 145.965
DX 1 26 Jul 13:54:08 13:57:32 22° 94° (E) 14:00:54 434.975-435.025
NANOSAT C BR1 26 Jul 13:57:44 13:58:44 11° 271° (W) 13:59:43 145.865
NO-84 26 Jul 14:01:02 14:02:57 14° 349° (N) 14:04:57 435.350 FM
BEESAT 3 26 Jul 14:10:11 14:13:45 30° 313° (NW) 14:17:22 437.485
AO-85 26 Jul 14:15:49 14:19:14 27° 314° (NW) 14:22:39 145.980
Gurwin Techsat 1B 26 Jul 14:27:29 14:32:48 82° 257° (WSW) 14:38:10 435.225
SPROUT 26 Jul 14:32:47 14:36:42 36° 290° (WNW) 14:40:35 437.525
PCSat 26 Jul 14:33:05 14:38:33 80° 59° (ENE) 14:43:58 145.827
UKube-1 26 Jul 14:33:13 14:37:15 36° 98° (E) 14:41:15 .
50 SAT 26 Jul 14:40:37 14:44:03 68° 285° (WNW) 14:47:26 437.505
BEESAT 2 26 Jul 14:53:24 14:56:59 31° 313° (NW) 15:00:39 435.950
ITUPSAT 1 26 Jul 15:20:18 15:22:24 13° 90° (E) 15:24:29 437.325
AO-7 26 Jul 15:26:38 15:34:53 67° 66° (ENE) 15:43:11 .
O/OREOS (USA 219) 26 Jul 15:29:31 15:33:49 47° 107° (ESE) 15:38:07 437.305
DX 1 26 Jul 15:29:46 15:33:49 37° 291° (WNW) 15:37:50 434.975-435.025
VELOX 1 26 Jul 15:30:49 15:33:03 14° 299° (WNW) 15:35:18 145.980
Oscar 19 26 Jul 15:32:04 15:34:46 14° 271° (W) 15:37:29 437.125/150
SO-50 26 Jul 15:32:14 15:36:48 86° 236° (SW) 15:41:23 436.795
NO-84 26 Jul 15:39:33 15:41:36 14° 11° (N) 15:43:45 435.350 FM
RS-15 26 Jul 15:42:46 15:54:09 49° 110° (ESE) 16:05:40 29.354- 29.394
ITAMSAT 1 26 Jul 15:44:32 15:49:42 66° 72° (ENE) 15:54:55 435.822/435.867
MOZHAYETS 4 26 Jul 15:52:10 15:55:37 21° 93° (E) 15:59:03
UKube-1 26 Jul 16:09:42 16:13:03 22° 295° (WNW) 16:16:22 .
Gurwin Techsat 1B 26 Jul 16:13:02 16:13:32 10° 273° (W) 16:14:03 435.225
PCSat 26 Jul 16:18:17 16:21:12 15° 257° (WSW) 16:24:07 145.827
CUBESAT XI-V 26 Jul 16:32:42 16:33:59 11° 88° (E) 16:35:15 437.345
BEESAT 26 Jul 16:41:36 16:46:23 85° 101° (ESE) 16:51:08 436.000
ITUPSAT 1 26 Jul 16:55:58 17:00:43 72° 287° (WNW) 17:05:27 437.325
O/OREOS (USA 219) 26 Jul 17:10:09 17:13:28 20° 306° (NW) 17:16:47 437.305
NO-84 26 Jul 17:16:25 17:19:53 36° 31° (NNE) 17:23:37 435.350 FM
DOVE 4 26 Jul 17:20:37 17:25:08 36° 68° (ENE) 17:29:51 437.250
AO-7 26 Jul 17:21:11 17:28:10 29° 265° (W) 17:35:14 .
XW-2C 26 Jul 17:21:52 17:22:21 10° 62° (ENE) 17:22:50 145.795 - 145.815
YUBILEINY 26 Jul 17:22:37 17:24:49 11° 71° (ENE) 17:27:02 435.215
ITAMSAT 1 26 Jul 17:26:24 17:29:38 16° 269° (W) 17:32:52 435.822/435.867
MOZHAYETS 4 26 Jul 17:28:39 17:32:55 40° 290° (WNW) 17:37:11
KAITUO 1B 26 Jul 17:38:46 17:40:18 12° 64° (ENE) 17:41:49 145.475/437.950
CUTE-I 26 Jul 17:44:30 17:48:51 26° 63° (ENE) 17:53:12 437.470
LilacSat-2 26 Jul 17:44:37 17:47:24 20° 67° (ENE) 17:50:11 437.200
RS-15 26 Jul 17:54:22 18:06:28 60° 314° (NW) 18:18:41 29.354- 29.394
XW-2F 26 Jul 17:55:35 17:58:35 23° 68° (ENE) 18:01:35 145.980 - 146.000
KKS-1 26 Jul 17:57:41 18:01:58 43° 99° (E) 18:06:13 437.445
CUBESAT XI-V 26 Jul 18:07:12 18:11:54 80° 285° (WNW) 18:16:35 437.345
BEESAT 26 Jul 18:21:31 18:23:27 12° 302° (WNW) 18:25:25 436.000
STARS 26 Jul 18:22:56 18:26:56 33° 97° (E) 18:30:54 437.465
XW-2D 26 Jul 18:24:45 18:28:25 57° 75° (ENE) 18:32:07 145.860 - 145.880
XW-2B 26 Jul 18:34:49 18:38:32 74° 76° (ENE) 18:42:17 145.730 - 145.750
HO-68 26 Jul 18:40:25 18:46:43 35° 61° (ENE) 18:53:03 435.675
XW-2C 26 Jul 18:52:16 18:55:59 65° 258° (WSW) 18:59:45 145.795 - 145.815
NUDT-PHONESAT 26 Jul 18:53:13 18:56:52 87° 250° (WSW) 19:00:34 437.300
NO-84 26 Jul 18:53:48 18:57:25 38° 227° (SW) 19:01:15 435.350 FM
DOVE 4 26 Jul 18:58:34 19:02:50 29° 267° (W) 19:07:18 437.250
UWE-3 26 Jul 19:08:48 19:10:10 11° 61° (ENE) 19:11:31 435.000/436.395/437.385
KAITUO 1B 26 Jul 19:10:16 19:13:51 50° 260° (W) 19:17:28 145.475/437.950
YUBILEINY 26 Jul 19:11:02 19:19:40 62° 92° (E) 19:28:19 435.215
LilacSat-2 26 Jul 19:18:10 19:21:30 29° 264° (W) 19:24:51 437.200
Tancredo 1 26 Jul 19:20:35 19:22:02 13° 133° (SE) 19:23:29 437.200
CUTE-I 26 Jul 19:23:28 19:28:36 46° 261° (W) 19:33:48 437.470
XW-2F 26 Jul 19:29:32 19:32:37 24° 265° (W) 19:35:43 145.980 - 146.000
KKS-1 26 Jul 19:34:56 19:38:13 20° 296° (WNW) 19:41:29 437.445
XW-2A 26 Jul 19:44:22 19:47:34 41° 73° (ENE) 19:50:46 145.665 - 145.685
CUBEBUG 2 26 Jul 19:47:13 19:51:40 44° 72° (ENE) 19:56:01 437.445
CUTE 1.7 + AOD 2 26 Jul 19:49:50 19:54:02 87° 74° (ENE) 19:58:15 437.475
AO-73 26 Jul 19:56:08 19:58:56 17° 64° (ENE) 20:01:43 145.935
SEEDS 26 Jul 19:58:43 20:02:50 69° 76° (ENE) 20:07:00 437.485
STARS 26 Jul 19:59:32 20:03:07 25° 294° (WNW) 20:06:40 437.465
STRAND 1 26 Jul 19:59:56 20:04:04 24° 94° (E) 20:08:09 437.568
XW-2D 26 Jul 20:02:32 20:02:57 10° 270° (W) 20:03:24 145.860 - 145.880
nSIGHT-1 26 Jul 20:02:35 20:04:22 14° 132° (SE) 20:06:09 .
RS-15 26 Jul 20:11:59 20:22:18 29° 344° (NNW) 20:32:31 29.354- 29.394
HO-68 26 Jul 20:27:17 20:34:12 50° 260° (W) 20:41:10 435.675
AAUSAT CUBESAT 2 26 Jul 20:36:57 20:41:04 84° 73° (ENE) 20:45:12 437.432
UWE-3 26 Jul 20:41:24 20:45:59 85° 259° (WSW) 20:50:27 435.000/436.395/437.385
BEESAT 3 26 Jul 20:48:09 20:51:36 27° 46° (NE) 20:55:00 437.485
ZACube-1 26 Jul 20:51:14 20:55:39 69° 74° (ENE) 20:59:58 437.345
Tancredo 1 26 Jul 20:54:08 20:57:04 71° 330° (NNW) 21:00:00 437.200
ISS 26 Jul 20:56:49 20:59:54 44° 142° (SE) 21:03:02 437.550
AO-85 26 Jul 21:04:20 21:08:15 39° 50° (NE) 21:12:26 145.980
YUBILEINY 26 Jul 21:09:26 21:17:02 31° 293° (WNW) 21:24:41 435.215
Oscar 11 26 Jul 21:14:11 21:18:29 82° 74° (ENE) 21:22:48 .
XW-2A 26 Jul 21:19:31 21:20:31 11° 269° (W) 21:21:32 145.665 - 145.685
DELFI C3 26 Jul 21:23:44 21:26:58 25° 68° (ENE) 21:30:15 145.870
EO-88 26 Jul 21:25:01 21:27:11 15° 66° (ENE) 21:29:22 145.990 - 145.960
CUBEBUG 2 26 Jul 21:25:01 21:28:26 20° 267° (W) 21:31:49 437.445
AO-73 26 Jul 21:30:31 21:34:48 50° 260° (W) 21:39:01 145.935
BEESAT 2 26 Jul 21:32:04 21:35:34 27° 46° (NE) 21:39:02 435.950
nSIGHT-1 26 Jul 21:37:09 21:40:22 76° 328° (NNW) 21:43:36 .
SEEDS 26 Jul 21:38:14 21:38:59 10° 272° (W) 21:39:44 437.485
STRAND 1 26 Jul 21:38:35 21:43:24 43° 291° (WNW) 21:48:11 437.568
UNISAT 6 26 Jul 22:05:00 22:05:17 10° 88° (E) 22:05:33 437.425
BEESAT 3 26 Jul 22:25:36 22:29:12 32° 244° (WSW) 22:32:44 437.485
RS-15 26 Jul 22:29:26 22:39:57 31° 20° (NNE) 22:50:05 29.354- 29.394
Tancredo 1 26 Jul 22:30:35 22:32:50 20° 348° (NNW) 22:35:06 437.200
ZACube-1 26 Jul 22:30:50 22:32:20 12° 271° (W) 22:33:50 437.345
ISS 26 Jul 22:33:29 22:36:28 32° 339° (NNW) 22:39:27 437.550
ESTCUBE 1 26 Jul 22:39:37 22:41:54 14° 61° (ENE) 22:44:10 437.505/2401.250
AO-85 26 Jul 22:45:02 22:48:29 24° 245° (WSW) 22:52:08 145.980
TIGRISAT 26 Jul 22:45:46 22:49:26 27° 95° (E) 22:53:03 435.000
FO-29 26 Jul 22:50:27 22:57:32 65° 100° (E) 23:03:43 435.910
LO-87 26 Jul 22:55:32 22:58:31 24° 69° (ENE) 23:01:30 145.935 - 145.965
EO-88 26 Jul 22:57:09 23:00:33 37° 262° (W) 23:03:58 145.990 - 145.960
DELFI C3 26 Jul 22:58:22 23:01:40 26° 265° (W) 23:05:01 145.870
PRISM 26 Jul 23:00:36 23:04:26 34° 97° (E) 23:08:13 437.425
BEESAT 2 26 Jul 23:09:41 23:13:21 33° 244° (WSW) 23:16:59 435.950
nSIGHT-1 26 Jul 23:14:32 23:17:10 22° 348° (NNW) 23:19:48 .
UNISAT 6 26 Jul 23:38:13 23:42:32 74° 286° (WNW) 23:46:47 437.425
M-CUBED/EXP-1 PRIME 26 Jul 23:45:23 23:49:44 39° 103° (ESE) 23:54:05 437.505
SPROUT 26 Jul 23:52:03 23:55:06 19° 65° (ENE) 23:58:10 437.525
O/OREOS (USA 219) 27 Jul 00:00:12 00:02:41 14° 50° (NE) 00:05:09 437.305
EO-79 27 Jul 00:04:50 00:06:16 12° 89° (E) 00:07:43 145.935-145.965
Tancredo 1 27 Jul 00:06:52 00:08:59 18° 8° (N) 00:11:07 437.200
ISS 27 Jul 00:11:12 00:13:37 19° 359° (N) 00:16:03 437.550
ESTCUBE 1 27 Jul 00:13:41 00:18:08 68° 258° (WSW) 00:22:37 437.505/2401.250
TIGRISAT 27 Jul 00:22:25 00:26:05 28° 292° (WNW) 00:29:42 435.000
LO-87 27 Jul 00:28:58 00:31:53 22° 265° (W) 00:34:48 145.935 - 145.965
FO-29 27 Jul 00:36:16 00:41:53 26° 302° (WNW) 00:47:01 435.910
PRISM 27 Jul 00:36:16 00:39:30 22° 294° (WNW) 00:42:44 437.425
RS-15 27 Jul 00:43:04 00:55:16 68° 50° (NE) 01:06:46 29.354- 29.394
VELOX 1 27 Jul 00:50:36 00:55:00 68° 73° (ENE) 00:59:26 145.980
DX 1 27 Jul 00:50:45 00:54:09 23° 65° (ENE) 00:57:34 434.975-435.025
nSIGHT-1 27 Jul 00:51:51 00:54:21 20° 8° (N) 00:56:51 .
AIST 2D 27 Jul 00:56:28 00:59:56 67° 284° (WNW) 01:03:24 435.315
DUCHIFAT 1 27 Jul 01:08:17 01:12:19 46° 99° (E) 01:16:19 145.980
50 SAT 27 Jul 01:12:42 01:15:57 45° 73° (ENE) 01:19:14 437.505
POLYITAN 1 27 Jul 01:13:45 01:17:57 68° 102° (ESE) 01:22:07 437.675
M-CUBED/EXP-1 PRIME 27 Jul 01:20:06 01:23:56 26° 299° (WNW) 01:27:46 437.505
SPROUT 27 Jul 01:26:37 01:30:42 42° 262° (W) 01:34:48 437.525
QB50P2 27 Jul 01:26:56 01:31:10 78° 284° (WNW) 01:35:21 145.880/145.840
UKube-1 27 Jul 01:28:31 01:32:27 36° 69° (ENE) 01:36:26 .
BUGSAT 1 27 Jul 01:29:32 01:32:47 22° 94° (E) 01:35:58 437.445
NANOSAT C BR1 27 Jul 01:36:56 01:41:08 73° 285° (WNW) 01:45:17 145.865
O/OREOS (USA 219) 27 Jul 01:38:08 01:42:37 73° 250° (WSW) 01:47:07 437.305
EO-79 27 Jul 01:38:17 01:42:27 63° 287° (WNW) 01:46:36 145.935-145.965
Tancredo 1 27 Jul 01:42:00 01:44:53 48° 27° (NNE) 01:47:45 437.200
ISS 27 Jul 01:47:53 01:50:49 30° 20° (NNE) 01:53:44 437.550
Oscar 19 27 Jul 02:00:48 02:04:52 23° 93° (E) 02:08:55 437.125/150
BEESAT 27 Jul 02:13:56 02:16:26 14° 60° (ENE) 02:18:57 436.000
DX 1 27 Jul 02:26:05 02:30:07 36° 262° (W) 02:34:11 434.975-435.025
ITUPSAT 1 27 Jul 02:27:38 02:30:56 19° 62° (ENE) 02:34:15 437.325
nSIGHT-1 27 Jul 02:28:06 02:31:16 52° 27° (NNE) 02:34:26 .
VELOX 1 27 Jul 02:30:13 02:31:54 12° 271° (W) 02:33:36 145.980
Gurwin Techsat 1B 27 Jul 02:42:44 02:47:38 36° 97° (E) 02:52:29 435.225
DUCHIFAT 1 27 Jul 02:44:57 02:47:37 17° 296° (WNW) 02:50:16 145.980
50 SAT 27 Jul 02:48:18 02:48:56 10° 269° (W) 02:49:35 437.505
POLYITAN 1 27 Jul 02:51:29 02:53:10 12° 299° (WNW) 02:54:51 437.675
MOZHAYETS 4 27 Jul 02:55:06 02:58:44 24° 66° (ENE) 03:02:22
RS-15 27 Jul 02:56:23 03:06:57 39° 254° (WSW) 03:17:05 29.354- 29.394
BUGSAT 1 27 Jul 03:04:34 03:08:10 30° 291° (WNW) 03:11:43 437.445
UKube-1 27 Jul 03:05:16 03:08:35 21° 266° (W) 03:11:55 .
Tancredo 1 27 Jul 03:17:50 03:20:04 19° 224° (SW) 03:22:17 437.200
ISS 27 Jul 03:24:14 03:27:25 52° 218° (SW) 03:30:36 437.550
AO-7 27 Jul 03:28:36 03:34:01 18° 89° (E) 03:39:23 .
CUBESAT XI-V 27 Jul 03:36:53 03:39:07 13° 61° (ENE) 03:41:20 437.345
Oscar 19 27 Jul 03:39:27 03:44:24 46° 290° (WNW) 03:49:19 437.125/150
BEESAT 27 Jul 03:48:51 03:53:36 74° 258° (WSW) 03:58:23 436.000
ITAMSAT 1 27 Jul 03:57:03 04:00:55 21° 93° (E) 04:04:45 435.822/435.867
ITUPSAT 1 27 Jul 04:03:40 04:08:21 54° 259° (W) 04:13:03 437.325
nSIGHT-1 27 Jul 04:04:55 04:07:27 21° 225° (SW) 04:09:59 .
Gurwin Techsat 1B 27 Jul 04:22:50 04:27:29 32° 294° (WNW) 04:32:07 435.225
MOZHAYETS 4 27 Jul 04:31:27 04:35:41 37° 262° (W) 04:39:56
KKS-1 27 Jul 04:56:29 05:00:45 46° 71° (ENE) 05:05:03 437.445
CUBESAT XI-V 27 Jul 05:11:18 05:15:52 73° 258° (WSW) 05:20:30 437.345
PCSat 27 Jul 05:15:34 05:20:52 59° 116° (ESE) 05:26:13 145.827
AO-7 27 Jul 05:19:27 05:27:53 87° 108° (ESE) 05:36:13 .
YUBILEINY 27 Jul 05:20:06 05:27:48 33° 68° (ENE) 05:35:22 435.215
STARS 27 Jul 05:20:19 05:24:20 35° 69° (ENE) 05:28:23 437.465
ITAMSAT 1 27 Jul 05:35:37 05:40:40 51° 290° (WNW) 05:45:40 435.822/435.867
SO-50 27 Jul 05:48:20 05:51:50 22° 113° (ESE) 05:55:20 436.795
